Weather History for Lee's Summit, MO

Change the Weather History Date:

Sunday, January 6, 2013

  Actual Average (KMKC) Record (KMKC)
Temperature  
Mean Temperature 30 °F -  
Max Temperature 39 °F 37 °F 61 °F (2008)
Min Temperature 21 °F 21 °F -6 °F (2014)
Degree Days  
Heating Degree Days 35    
Moisture  
Dew Point 18 °F    
Average Humidity 65    
Maximum Humidity 80    
Minimum Humidity 41    
Precipitation  
Precipitation 0.00 in - - ()
Sea Level Pressure  
Sea Level Pressure 30.32 in    
Wind  
Wind Speed 9 mph (West)    
Max Wind Speed 14 mph    
Max Gust Speed -    
Visibility 10 miles    
Events      
Averages and records for this station are not official NWS values.
T = Trace of Precipitation, MM = Missing Value Source: NWS Daily Summary

Daily Weather History Graph

Daily Weather History Graph

Search for Another Location

Airport:

Trip Planner

Search our weather history database for the weather conditions in past years. The results will help you decide how hot, cold, wet, or windy it might be!

Date:

Astronomy

Jan. 06, 2013 Rise Set
Actual Time 7:36 AM CST 5:10 PM CST
Civil Twilight 7:06 AM CST 5:40 PM CST
Nautical Twilight 6:33 AM CST 6:13 PM CST
Astronomical Twilight 6:01 AM CST 6:45 PM CST
Moon 1:53 AM CST (1/6) 12:37 PM CST (1/6)
Length of Visible Light 10h 33m
Length of Day
9h 34m
Waning Crescent, 33% of the Moon is Illuminated
Jan 6
Waning Crescent
Jan 11
New
Jan 18
First Quarter
Jan 26
Full
Feb 3
Last Quarter

Hourly Weather History & Observations

Time (CST) Temp. Windchill Dew Point Humidity Pressure Visibility Wind Dir Wind Speed Gust Speed Precip Events Conditions
12:53 AM 30.0 °F 22.4 °F 21.9 °F 72% 30.19 in 10.0 mi West 8.1 mph - N/A   Clear
1:53 AM 28.9 °F 20.4 °F 21.9 °F 75% 30.22 in 10.0 mi NW 9.2 mph - N/A   Clear
2:16 AM 28.4 °F 19.7 °F 21.2 °F 74% 30.20 in 10.0 mi NW 9.2 mph - N/A   Mostly Cloudy
2:46 AM 28.4 °F 18.5 °F 19.4 °F 69% 30.20 in 10.0 mi NNW 11.5 mph - N/A   Scattered Clouds
2:53 AM 28.0 °F 18.1 °F 19.0 °F 69% 30.23 in 10.0 mi NW 11.5 mph - N/A   Partly Cloudy
3:53 AM 26.1 °F 17.6 °F 19.0 °F 75% 30.25 in 10.0 mi WNW 8.1 mph - N/A   Clear
4:53 AM 25.0 °F 13.6 °F 18.0 °F 75% 30.27 in 10.0 mi NW 12.7 mph - N/A   Clear
5:22 AM 24.8 °F 15.3 °F 17.6 °F 74% 30.25 in 10.0 mi NW 9.2 mph - N/A   Mostly Cloudy
5:53 AM 23.0 °F 10.6 °F 16.0 °F 74% 30.31 in 10.0 mi NW 13.8 mph - N/A   Overcast
6:24 AM 21.2 °F 8.9 °F 15.8 °F 80% 30.30 in 10.0 mi NW 12.7 mph - N/A   Overcast
6:53 AM 21.9 °F 11.0 °F 16.0 °F 78% 30.34 in 10.0 mi NW 10.4 mph - N/A   Overcast
7:53 AM 21.9 °F 13.4 °F 16.0 °F 78% 30.35 in 7.0 mi WNW 6.9 mph - N/A   Mostly Cloudy
8:08 AM 21.2 °F 12.6 °F 15.8 °F 80% 30.32 in 7.0 mi WNW 6.9 mph - N/A   Scattered Clouds
8:53 AM 24.1 °F 16.0 °F 17.1 °F 75% 30.38 in 8.0 mi West 6.9 mph - N/A   Clear
9:53 AM 26.1 °F 17.6 °F 18.0 °F 71% 30.40 in 9.0 mi West 8.1 mph - N/A   Clear
10:53 AM 28.9 °F 23.9 °F 19.0 °F 67% 30.41 in 10.0 mi WSW 4.6 mph - N/A   Clear
11:53 AM 32.0 °F 24.8 °F 19.0 °F 59% 30.39 in 10.0 mi WNW 8.1 mph - N/A   Clear
12:53 PM 35.1 °F 28.6 °F 19.0 °F 52% 30.37 in 10.0 mi West 8.1 mph - N/A   Clear
1:53 PM 37.0 °F 32.4 °F 17.1 °F 44% 30.36 in 10.0 mi WNW 5.8 mph - N/A   Clear
3:53 PM 39.0 °F 36.8 °F 17.1 °F 41% 30.35 in 10.0 mi WSW 3.5 mph - N/A   Clear
4:53 PM 37.0 °F 34.5 °F 16.0 °F 42% 30.35 in 10.0 mi WSW 3.5 mph - N/A   Clear
5:53 PM 36.0 °F 33.3 °F 16.0 °F 44% 30.36 in 10.0 mi South 3.5 mph - N/A   Clear
6:53 PM 34.0 °F 29.8 °F 19.0 °F 54% 30.37 in 10.0 mi South 4.6 mph - N/A   Clear
7:53 PM 33.1 °F 28.7 °F 19.0 °F 56% 30.36 in 10.0 mi South 4.6 mph - N/A   Clear
8:53 PM 32.0 °F 25.6 °F 19.0 °F 59% 30.35 in 10.0 mi South 6.9 mph - N/A   Clear
9:53 PM 32.0 °F 25.6 °F 19.0 °F 59% 30.34 in 10.0 mi South 6.9 mph - N/A   Clear
10:53 PM 30.9 °F 22.8 °F 19.9 °F 64% 30.33 in 10.0 mi South 9.2 mph - N/A   Clear
11:53 PM 30.0 °F 21.7 °F 19.9 °F 66% 30.32 in 10.0 mi South 9.2 mph - N/A   Clear